This is the latest recevied weather packets stored in our database for station/object KF8LO-1. If no packets are shown the sender has not sent any weather packets the latest 1 day(s).
| Time | Temp. | Humidity | Pressure | Rain* | Wind** | Luminosity | Snow |
|---|---|---|---|---|---|---|---|
| 1778019423 | 20.56° C | 32% | 0 hPa | 0 mm | 4.92 m/s, 309° | - | - |
| 1778019123 | 20.56° C | 31% | 0 hPa | 0 mm | 4.47 m/s, 313° | - | - |
| 1778018823 | 20.56° C | 31% | 0 hPa | 0 mm | 0.89 m/s, 310° | - | - |
| 1778018523 | 20.56° C | 31% | 0 hPa | 0 mm | 2.24 m/s, 288° | - | - |
| 1778018223 | 20.56° C | 30% | 0 hPa | 0 mm | 2.68 m/s, 275° | - | - |
| 1778017923 | 20.56° C | 31% | 0 hPa | 0 mm | 3.58 m/s, 274° | - | - |
| 1778017623 | 20.56° C | 30% | 0 hPa | 0 mm | 0.89 m/s, 281° | - | - |
| 1778017323 | 20.56° C | 28% | 0 hPa | 0 mm | 3.13 m/s, 317° | - | - |
| 1778017023 | 21.11° C | 28% | 0 hPa | 0 mm | 3.58 m/s, 313° | - | - |
| 1778016723 | 21.11° C | 27% | 0 hPa | 0 mm | 8.05 m/s, 271° | - | - |
| 1778016423 | 21.11° C | 26% | 0 hPa | 0 mm | 4.02 m/s, 286° | - | - |
| 1778016123 | 21.11° C | 28% | 0 hPa | 0 mm | 4.92 m/s, 310° | - | - |
| 1778015823 | 21.11° C | 25% | 0 hPa | 0 mm | 3.13 m/s, 295° | - | - |
| 1778015523 | 21.11° C | 26% | 0 hPa | 0 mm | 4.02 m/s, 267° | - | - |
| 1778015223 | 21.11° C | 28% | 0 hPa | 0 mm | 2.24 m/s, 198° | - | - |
| 1778014923 | 20.56° C | 27% | 0 hPa | 0 mm | 1.34 m/s, 324° | - | - |
| 1778014623 | 20.56° C | 30% | 0 hPa | 0 mm | 8.05 m/s, 291° | - | - |
| 1778014323 | 20.56° C | 30% | 0 hPa | 0 mm | 0.45 m/s, 250° | - | - |
| 1778014023 | 20.56° C | 30% | 0 hPa | 0 mm | 3.58 m/s, 296° | - | - |
| 1778013723 | 20.56° C | 32% | 0 hPa | 0 mm | 8.49 m/s, 296° | - | - |
| 1778013424 | 20.56° C | 31% | 0 hPa | 0 mm | 5.81 m/s, 277° | - | - |
| 1778013124 | 20.56° C | 31% | 0 hPa | 0 mm | 3.13 m/s, 302° | - | - |
| 1778012824 | 20.56° C | 31% | 0 hPa | 0 mm | 1.79 m/s, 319° | - | - |
| 1778012524 | 20.56° C | 31% | 0 hPa | 0 mm | 1.79 m/s, 302° | - | - |
| 1778012224 | 20.56° C | 31% | 0 hPa | 0 mm | 1.79 m/s, 295° | - | - |
* Rain latest hour (hover to see other rain measurements)
** Current wind speed in m/s (hover to see current wind gust speed)